Location: Góry Miechowskie
(50.3599°N, 20.1803°E)
Time: 07:01:49
(UTC+00:00)

A-11 Canister half - Pass Details

Date: 14 September 2024
Orbit: 1524 x 1683 km, 47.3° (Epoch: 12 October)

Event Time Altitude Azimuth Distance (km) Brightness Sun altitude
Rises 17:13:30 0° 281° (W) 4,798 15.0 -3.8°
Reaches altitude 10° 17:16:36 10° 278° (W) 3,833 13.1 -4.3°
Maximum altitude 17:26:11 62° 201° (SSW) 1,819 9.5 -5.8°
Drops below altitude 10° 17:36:03 10° 124° (SE) 3,930 10.6 -7.4°
Enters shadow 17:37:16 - 123° (ESE) 4,304 10.7 -7.6°
